This is the latest recevied weather packets stored in our database for station/object KI4MRC. If no packets are shown the sender has not sent any weather packets the latest 10 day(s).
| Time | Temp. | Humidity | Pressure | Rain* | Wind** | Luminosity | Snow |
|---|---|---|---|---|---|---|---|
| 1778091285 | 31.11° C | 47% | 1016.6 hPa | 0 mm | - | 976 W/m² | - |
| 1778090982 | 31.11° C | 50% | 1016.6 hPa | 0 mm | - | 883 W/m² | - |
| 1778090678 | 31.11° C | 51% | 1016.7 hPa | 0 mm | - | 916 W/m² | - |
| 1778090375 | 31.67° C | 53% | 1016.6 hPa | 0 mm | - | 969 W/m² | - |
| 1778090072 | 31.67° C | 52% | 1016.6 hPa | 0 mm | - | 937 W/m² | - |
| 1778089769 | 31.67° C | 48% | 1016.9 hPa | 0 mm | - | 1029 W/m² | - |
| 1778089467 | 31.67° C | 50% | 1016.8 hPa | 0 mm | - | 1038 W/m² | - |
| 1778089163 | 31.11° C | 53% | 1016.9 hPa | 0 mm | - | 1046 W/m² | - |
| 1778088860 | 31.11° C | 53% | 1016.9 hPa | 0 mm | - | 1040 W/m² | - |
| 1778088557 | 31.11° C | 55% | 1016.9 hPa | 0 mm | - | 1045 W/m² | - |
| 1778088254 | 31.11° C | 55% | 1016.8 hPa | 0 mm | - | 1008 W/m² | - |
| 1778087951 | 31.11° C | 54% | 1017 hPa | 0 mm | - | 1034 W/m² | - |
| 1778087648 | 31.11° C | 53% | 1016.7 hPa | 0 mm | - | 1010 W/m² | - |
| 1778087347 | 31.11° C | 56% | 1017 hPa | 0 mm | - | 1028 W/m² | - |
| 1778087042 | 31.67° C | 56% | 1016.9 hPa | 0 mm | - | 1023 W/m² | - |
| 1778086741 | 31.11° C | 55% | 1016.9 hPa | 0 mm | - | 912 W/m² | - |
| 1778086439 | 30.56° C | 58% | 1017 hPa | 0 mm | - | 1013 W/m² | - |
| 1778086135 | 30.56° C | 57% | 1017.2 hPa | 0 mm | - | 1045 W/m² | - |
| 1778085831 | 31.11° C | 57% | 1017.2 hPa | 0 mm | - | 1016 W/m² | - |
| 1778085530 | 31.11° C | 58% | 1017.3 hPa | 0 mm | - | 990 W/m² | - |
| 1778085224 | 31.11° C | 60% | 1017.2 hPa | 0 mm | - | 1005 W/m² | - |
| 1778084919 | 31.11° C | 59% | 1017.3 hPa | 0 mm | - | 979 W/m² | - |
| 1778084618 | 31.11° C | 59% | 1017.3 hPa | 0 mm | - | 947 W/m² | - |
| 1778084315 | 31.11° C | 59% | 1017.3 hPa | 0 mm | - | 974 W/m² | - |
| 1778084012 | 31.11° C | 64% | 1017.4 hPa | 0 mm | - | 931 W/m² | - |
* Rain latest hour (hover to see other rain measurements)
** Current wind speed in m/s (hover to see current wind gust speed)